Weather Roundup
Issued by NWS

Home | Current Version | Previous Version | Text Only | Print | Product List | Glossary On
Versions: 1 2 3 4 5 6 7 8 9 10 11 12 13 14 15 16 17 18 19 20 21 22 23 24 25 26 27 28 29 30 31 32 33 34 35 36 37 38 39 40 41 42 43 44 45 46 47 48 49 50
000
NZUS93 KARX 210610
HRRWXR

CURRENT HOURLY OBSERVATIONS ACROSS
MUCH OF THE UPPER MISSISSIPPI VALLEY
NATIONAL WEATHER SERVICE LA CROSSE WI
100 AM CDT SAT OCT 21 2017


...SOUTHEAST MINNESOTA...


CITY           SKY/WX    TMP DP  RH WIND       PRES   REMARKS
ROCHESTER      CLOUDY    61  49  64 S20G30    29.81S
ROCHESTER/MAYO FAIR      63  47  57 SE13G26   29.81S
WINONA         PTCLDY    66  46  48 S9        29.84S
AUSTIN         PTCLDY    61  48  63 S12G21    29.80S
ALBERT LEA     NOT AVBL
DODGE CENTER   CLOUDY    63  48  59 S23G30    29.79S
PRESTON        CLOUDY    60  47  61 S20G28    29.84F
OWATONNA       PTCLDY    63  52  67 S16G25    29.77R
FARIBAULT      CLOUDY    63  52  67 SE15      29.75S
$$

...ELSEWHERE IN MINNESOTA...


CITY           SKY/WX    TMP DP  RH WIND       PRES   REMARKS
MINNEAPOLIS    MOCLDY    66  54  65 S17       29.73F
INTNL FALLS    PTCLDY    66  46  48 S7G17     29.57F
DULUTH         CLEAR     62  47  57 S13       29.72F
RED WING       PTCLDY    66  46  48 SE9G22    29.78S
REDWOOD FALLS  PTCLDY    66  55  67 S20G31    29.60F
MANKATO        CLOUDY    64  54  69 S16G26    29.71S
WORTHINGTON    PTCLDY    63  56  78 S20G31    29.64F
FAIRMONT       CLOUDY    63  55  75 S23G30    29.70S
$$

...SOUTHWEST WISCONSIN...


CITY           SKY/WX    TMP DP  RH WIND       PRES   REMARKS
LA CROSSE      CLOUDY    67  47  48 S20       29.86S
PRAIRIE DU CHI PTCLDY    65  45  47 SE6       29.90F
BOSCOBEL       MOCLDY    67  46  47 S9        29.92S
LONE ROCK      CLOUDY    66  47  50 S8        29.94S
PLATTEVILLE    PTCLDY    63  49  60 S10       29.96S
FORT MC COY    CLOUDY    66  46  49 S10       29.90S
MAUSTON-NEW LI MOCLDY    66  46  48 S9        29.91S
VIROQUA        FAIR      63  48  57 S12       29.91R
WIS DELLS      CLOUDY    64  43  45 S13       29.94S
$$

...ELSEWHERE IN WISCONSIN...


CITY           SKY/WX    TMP DP  RH WIND       PRES   REMARKS
MILWAUKEE      CLOUDY    65  48  54 S12       30.02F
MADISON        CLOUDY    64  46  52 S9        29.97F
GREEN BAY      CLOUDY    60  50  69 S6        29.97R
EAU CLAIRE     CLOUDY    66  45  46 S13       29.83R
BLACK RVR FLS  FAIR      67  41  38 S6        29.88R
MEDFORD        CLOUDY    58  45  62 S9        29.88S
WAUSAU         CLOUDY    63  46  54 S13       29.90S
WIS RAPIDS     MOCLDY    66  45  46 S10       29.92S
MARSHFIELD     CLOUDY    63  44  50 S10       29.89S
RICE LAKE      CLOUDY    64  46  50 S13G20    29.83R
$$

...NORTHEAST IOWA...


CITY           SKY/WX    TMP DP  RH WIND       PRES   REMARKS
WATERLOO       CLOUDY    62  49  62 S18       29.86S
DUBUQUE        PTCLDY    61  48  62 S12       29.95S
DECORAH        CLOUDY    64  48  55 S13G23    29.87S
MASON CITY     MOCLDY    61  50  67 S17G30    29.81S
CHARLES CITY   CLOUDY    61  48  63 S14G21    29.85S
OELWEIN        CLOUDY    63  50  63 S17G24    29.89S
$$

...ELSEWHERE IN IOWA...


CITY           SKY/WX    TMP DP  RH WIND       PRES   REMARKS
DES MOINES     PTCLDY    62  53  72 SE14      29.82F
IOWA CITY      CLOUDY    65  50  58 S13       29.94S
FORT DODGE     CLOUDY    62  54  74 S16G25    29.76F
MARSHALLTOWN   CLEAR     61  51  70 S14       29.85S
CEDAR RAPIDS   PTCLDY    62  50  64 S14       29.91S
$$

...NORTHERN ILLINOIS...


CITY           SKY/WX    TMP DP  RH WIND       PRES   REMARKS
CHICAGO-OHARE  CLOUDY    65  48  54 S15       30.04F
CHICAGO-MIDWAY CLOUDY    66  49  54 S15G22    30.06S
MOLINE         CLOUDY    66  49  54 S13       29.97R
ROCKFORD       CLOUDY    62  48  60 S10       30.02F
PEORIA         CLOUDY    62  52  69 S9        30.03S
$$

NOTE: "FAIR" INDICATES FEW OR NO CLOUDS BELOW 12,000 FEET WITH NO
SIGNIFICANT WEATHER AND/OR OBSTRUCTIONS TO VISIBILITY. WIND
SPEEDS ARE IN MILES-PER-HOUR.




USA.gov is the U.S. government's official web portal to all federal, state and local government web resources and services.